Location: Unspecified
(41.9000°N, 12.4830°E)
Time: 09:12:11
(UTC+02:00)

ISS - Pass Details

Date: 16 September 2017
Orbit: 401 x 407 km, 51.6° (Epoch: 23 September)

Event Time Altitude Azimuth Distance (km) Brightness Sun altitude
Exits shadow 04:29:24 16° 9° (N) 1,152 -1.1 -25.9°
Drops below altitude 10° 04:31:32 10° 50° (NE) 1,472 0.0 -25.5°
Sets 04:34:11 0° 72° (ENE) 2,331 1.3 -25.1°
